Simultaneous Nadir Overpasses (SNOs) Predictions

Prediction of SNOs between LANDSAT-8 and METOP-B Satellite Orbit:

Table of predicted SNOs for the next 14.0 days since TLE Epoch: 5/11/2019
Index Date (LANDSAT-8) Time (LANDSAT-8) Lat,Lon (LANDSAT-8) SZA (LANDSAT-8 ) Date (METOP-B) Time (METOP-B) Lat,Lon (METOP-B) SZA (METOP-B ) Distance(km) Time Diff (sec)
1 05/11/2019 23:28:53 -81.14, 47.97 114.61 05/11/2019 23:28:27 -81.14, 47.86 114.63 1.90 26
2 05/12/2019 00:18:18 81.16,-143.97 65.45 05/12/2019 00:19:05 81.17,-143.84 65.49 2.16 47
3 05/14/2019 19:03:11 -81.14, 114.41 115.30 05/14/2019 19:02:50 -81.14, 114.31 115.32 1.60 21
4 05/14/2019 19:52:36 81.16, -77.56 64.76 05/14/2019 19:53:28 81.17, -77.43 64.80 2.19 52
5 05/17/2019 14:37:28 -81.14,-179.04 115.93 05/17/2019 14:37:11 -81.15,-178.90 115.92 2.55 17
6 05/17/2019 15:26:53 81.17, -11.03 64.12 05/17/2019 15:27:50 81.17, -11.06 64.14 0.63 57
7 05/20/2019 10:11:47 -81.14,-112.74 116.56 05/20/2019 10:11:35 -81.14,-112.90 116.58 2.72 12
8 05/20/2019 11:01:12 81.16, 55.25 63.49 05/20/2019 11:02:13 81.16, 55.27 63.52 0.60 61
9 05/23/2019 05:46:05 -81.16, -45.96 117.07 05/23/2019 05:45:56 -81.16, -45.81 117.06 2.52 9




NCC Satellite Simultaneous Nadir Overpasses (SNOs) Prediction Service
